STARLINK-6300

decayed
NORAD ID: 56390 Int'l Des: 2023-061 Owner: SPXS Country: US Constellation: starlink
LEOCIRCULAR

关于 STARLINK-6300

正在加载描述...

高度历史

Altitude vs Time

uPlot chart will show altitude changes over time

两行轨道根数

1 56390U 23061S 25067.15737433 .05362868 91312-5 81948-3 0 9990
2 56390 42.9831 324.0287 0010424 258.1833 233.8380 16.32969119102657
Epoch: Mar 8, 2025 • Age: 4622 hours

当前状态

Position data unavailable
发射日期 May 4, 2023
运行时间 2.3 years
衰减日期 Mar 8, 2025
类型 internet

技术详情

分类 Payload
质量 305.00 kg
干质量 290.00 kg
总质量 305.00 kg
长度 0.20 m
直径 2.80 m
跨度 9.00 m
形状 Box + pan
制造商 SPXS
平台类型 Starlink
阶段状态 Reentered
所有者/国家 SPXS/US

大型星座

Loading constellations...